TUA423 UTAA-EGKK

Flight info

Callsign TUA423
Flight time N/A
Altitude 38000
Route MAMED B449 INRAK A240 KRS B143 METKA L88 NIJAT N644 TETRO M10 SARPI UG67 TBN UW71 CRM UL746 GOKPA/N0480F400 UL746 ODERO L746 LUGEB DCT DIRAL DCT IDARU DCT AGNEP DCT GITAS DCT RENKA DCT MAMOR DCT PETIX DCT BOMBI DCT ADKUV DCT BUB DCT DENUT L610 TEBRA
Aircraft A346/H-SDE2E3FGHIJ3J4J5M1RWXY/LB1D1

Departure

Time 2026-05-06 13:17
Airport Ashgabat International Airport (UTAA)

Arrival

Time N/A
Airport London Gatwick Airport (EGKK)
Time Latitude Longitude Altitude Speed Heading
2026-05-06 12:56 37.98318 58.37169 694 ft 0 kts 209°
2026-05-06 13:07 37.98320 58.37171 694 ft 0 kts 210°
2026-05-06 13:07 37.98331 58.37178 694 ft 1 kts 204°
2026-05-06 13:07 37.98344 58.37184 695 ft 1 kts 191°
2026-05-06 13:08 37.98358 58.37186 695 ft 2 kts 181°
2026-05-06 13:08 37.98372 58.37186 695 ft 2 kts 172°
2026-05-06 13:08 37.98386 58.37182 695 ft 2 kts 162°
2026-05-06 13:08 37.98399 58.37175 695 ft 1 kts 152°
2026-05-06 13:09 37.98411 58.37166 695 ft 2 kts 142°
2026-05-06 13:09 37.98421 58.37154 695 ft 2 kts 133°
2026-05-06 13:09 37.98431 58.37140 695 ft 2 kts 123°
2026-05-06 13:09 37.98434 58.37132 695 ft 0 kts 119°
2026-05-06 13:12 37.98434 58.37133 695 ft 1 kts 119°
2026-05-06 13:12 37.98409 58.37188 695 ft 13 kts 119°
2026-05-06 13:13 37.98377 58.37339 692 ft 22 kts 86°
2026-05-06 13:13 37.98381 58.37553 691 ft 24 kts 112°
2026-05-06 13:13 37.98299 58.37741 692 ft 24 kts 119°
2026-05-06 13:13 37.98236 58.37922 690 ft 10 kts 76°
2026-05-06 13:14 37.98239 58.37930 691 ft 0 kts 55°
2026-05-06 13:15 37.98241 58.37933 691 ft 2 kts 56°
2026-05-06 13:15 37.98277 58.37991 692 ft 13 kts 41°
2026-05-06 13:15 37.98354 58.38038 692 ft 9 kts 334°
2026-05-06 13:16 37.98375 58.38005 693 ft 0 kts 298°
2026-05-06 13:16 37.98448 58.37840 694 ft 62 kts 299°
2026-05-06 13:16 37.98813 58.37025 698 ft 144 kts 299°
2026-05-06 13:17 37.99382 58.35739 1109 ft 172 kts 298°
2026-05-06 13:17 37.99939 58.34425 2004 ft 171 kts 297°
2026-05-06 13:17 38.00492 58.33138 2912 ft 164 kts 298°
2026-05-06 13:17 38.01068 58.31847 3308 ft 175 kts 297°
2026-05-06 13:18 38.01651 58.30426 3710 ft 187 kts 297°
2026-05-06 13:18 38.02296 58.28919 4183 ft 199 kts 298°
2026-05-06 13:18 38.03001 58.27359 4613 ft 212 kts 300°
2026-05-06 13:18 38.03667 58.25621 5040 ft 223 kts 284°
2026-05-06 13:19 38.03914 58.23619 5380 ft 240 kts 282°
2026-05-06 13:19 38.04662 58.21627 5717 ft 263 kts 311°
2026-05-06 13:19 38.06130 58.20186 6257 ft 277 kts 326°
2026-05-06 13:19 38.07788 58.18881 7052 ft 281 kts 326°
2026-05-06 13:20 38.09479 58.17469 7907 ft 283 kts 323°
2026-05-06 13:20 38.11141 58.15995 8707 ft 287 kts 322°
2026-05-06 13:20 38.12784 58.14487 9479 ft 290 kts 321°
2026-05-06 13:20 38.14461 58.12908 10248 ft 294 kts 321°
2026-05-06 13:21 38.16153 58.11286 10762 ft 308 kts 320°
2026-05-06 13:21 38.17938 58.09555 11137 ft 325 kts 320°
2026-05-06 13:21 38.19867 58.07675 11515 ft 343 kts 320°
2026-05-06 13:21 38.21832 58.05753 11865 ft 361 kts 320°
2026-05-06 13:22 38.23939 58.03690 12198 ft 378 kts 320°
2026-05-06 13:22 38.26103 58.01569 12652 ft 391 kts 320°
2026-05-06 13:22 38.28294 57.99422 13379 ft 395 kts 320°
2026-05-06 13:22 38.30494 57.97263 14151 ft 398 kts 320°
2026-05-06 13:23 38.32716 57.95079 14880 ft 402 kts 320°
2026-05-06 13:23 38.34932 57.92898 15588 ft 405 kts 320°
2026-05-06 13:23 38.37198 57.90665 16300 ft 409 kts 320°
2026-05-06 13:23 38.39459 57.88435 16997 ft 412 kts 320°
2026-05-06 13:24 38.41700 57.86222 17675 ft 416 kts 320°
2026-05-06 13:24 38.44025 57.83924 18357 ft 419 kts 320°
2026-05-06 13:24 38.46316 57.81656 19016 ft 422 kts 320°
2026-05-06 13:24 38.48666 57.79329 19676 ft 426 kts 320°
2026-05-06 13:25 38.51011 57.77003 20320 ft 429 kts 320°
2026-05-06 13:25 38.53382 57.74650 20959 ft 432 kts 320°
2026-05-06 13:25 38.55769 57.72280 21601 ft 435 kts 320°
2026-05-06 13:25 38.58161 57.69898 22212 ft 438 kts 318°
2026-05-06 13:26 38.60373 57.67183 22805 ft 438 kts 308°
2026-05-06 13:26 38.62145 57.64029 23401 ft 437 kts 298°
2026-05-06 13:26 38.63450 57.60521 23977 ft 438 kts 290°
2026-05-06 13:26 38.64536 57.56843 24550 ft 440 kts 289°
2026-05-06 13:27 38.65595 57.53119 25099 ft 443 kts 289°
2026-05-06 13:27 38.66649 57.49390 25640 ft 446 kts 289°
2026-05-06 13:27 38.67734 57.45556 26188 ft 449 kts 289°
2026-05-06 13:27 38.68807 57.41769 26702 ft 451 kts 289°
2026-05-06 13:28 38.69894 57.37939 27207 ft 454 kts 289°
2026-05-06 13:28 38.70993 57.34060 27707 ft 457 kts 288°
2026-05-06 13:28 38.72075 57.30235 28190 ft 459 kts 288°
2026-05-06 13:28 38.73158 57.26395 28689 ft 460 kts 288°
2026-05-06 13:29 38.74243 57.22552 29332 ft 458 kts 288°
2026-05-06 13:29 38.75312 57.18761 30010 ft 455 kts 288°
2026-05-06 13:29 38.76384 57.14961 30654 ft 452 kts 288°
2026-05-06 13:29 38.77454 57.11166 31275 ft 450 kts 289°
2026-05-06 13:30 38.78497 57.07457 31865 ft 447 kts 288°
2026-05-06 13:30 38.79554 57.03700 32463 ft 445 kts 288°
2026-05-06 13:30 38.80595 56.99995 33063 ft 441 kts 288°
2026-05-06 13:30 38.81623 56.96330 33640 ft 438 kts 288°
2026-05-06 13:31 38.82653 56.92651 34203 ft 435 kts 288°
2026-05-06 13:31 38.83676 56.88994 34747 ft 432 kts 288°
2026-05-06 13:31 38.84679 56.85402 35238 ft 430 kts 288°
2026-05-06 13:31 38.85685 56.81782 35677 ft 429 kts 288°
2026-05-06 13:32 38.86693 56.78155 36104 ft 427 kts 288°
2026-05-06 13:32 38.87695 56.74544 36444 ft 428 kts 288°
2026-05-06 13:32 38.88694 56.70939 36685 ft 429 kts 288°
2026-05-06 13:32 38.89690 56.67340 36923 ft 431 kts 288°
2026-05-06 13:33 38.90704 56.63681 37161 ft 432 kts 288°
2026-05-06 13:33 38.91704 56.60062 37379 ft 433 kts 288°
2026-05-06 13:33 38.92711 56.56411 37585 ft 434 kts 288°
2026-05-06 13:33 38.93727 56.52719 37783 ft 435 kts 288°
2026-05-06 13:34 38.94741 56.49031 37851 ft 437 kts 288°
2026-05-06 13:34 38.96768 56.41640 37863 ft 436 kts 288°
2026-05-06 13:35 38.98790 56.34265 37868 ft 435 kts 288°
2026-05-06 13:35 39.01118 56.27048 37883 ft 436 kts 292°
2026-05-06 13:36 39.03811 56.20041 37902 ft 436 kts 294°
2026-05-06 13:36 39.06529 56.13057 37921 ft 436 kts 294°
2026-05-06 13:37 39.09262 56.06025 37938 ft 436 kts 294°
2026-05-06 13:37 39.11986 55.99041 37944 ft 436 kts 294°
2026-05-06 13:38 39.14700 55.92080 37946 ft 436 kts 294°
2026-05-06 13:38 39.17405 55.85080 37947 ft 436 kts 294°
2026-05-06 13:39 39.20118 55.78028 37947 ft 435 kts 294°
2026-05-06 13:39 39.22814 55.71000 37948 ft 435 kts 294°
2026-05-06 13:40 39.25508 55.63953 37948 ft 436 kts 294°
2026-05-06 13:40 39.28157 55.56909 37948 ft 435 kts 291°
2026-05-06 13:41 39.30470 55.49722 37948 ft 434 kts 290°
2026-05-06 13:41 39.32731 55.42437 37948 ft 434 kts 289°
2026-05-06 13:42 39.34950 55.35249 37947 ft 434 kts 289°
2026-05-06 13:42 39.37186 55.27963 37948 ft 434 kts 289°
2026-05-06 13:43 39.39409 55.20703 37947 ft 434 kts 289°
2026-05-06 13:43 39.41639 55.13412 37947 ft 435 kts 289°
2026-05-06 13:44 39.43857 55.06144 37945 ft 435 kts 289°
2026-05-06 13:44 39.46060 54.98907 37942 ft 437 kts 289°
2026-05-06 13:45 39.48296 54.91540 37937 ft 437 kts 289°
2026-05-06 13:45 39.51621 54.80556 37928 ft 437 kts 289°
2026-05-06 13:46 39.53830 54.73231 37924 ft 438 kts 289°
2026-05-06 13:46 39.56046 54.65864 37923 ft 437 kts 289°
2026-05-06 13:47 39.58261 54.58484 37922 ft 438 kts 289°
2026-05-06 13:47 39.60456 54.51141 37922 ft 438 kts 289°
2026-05-06 13:48 39.62689 54.43657 37922 ft 438 kts 289°
2026-05-06 13:48 39.64888 54.36265 37921 ft 437 kts 289°
2026-05-06 13:49 39.67089 54.28830 37923 ft 438 kts 288°
2026-05-06 13:49 39.69286 54.21380 37923 ft 437 kts 288°
2026-05-06 13:50 39.71452 54.14029 37922 ft 437 kts 288°
2026-05-06 13:50 39.73661 54.06522 37922 ft 438 kts 288°
2026-05-06 13:51 39.75852 53.99048 37922 ft 438 kts 288°
2026-05-06 13:51 39.78017 53.91652 37920 ft 438 kts 288°
2026-05-06 13:52 39.80199 53.84165 37922 ft 438 kts 288°
2026-05-06 13:52 39.82368 53.76708 37923 ft 438 kts 288°
2026-05-06 13:53 39.84519 53.69292 37922 ft 438 kts 288°
2026-05-06 13:53 39.86689 53.61795 37922 ft 437 kts 288°
2026-05-06 13:54 39.88833 53.54357 37923 ft 437 kts 288°
2026-05-06 13:54 39.90979 53.46894 37921 ft 438 kts 288°
2026-05-06 13:55 39.93102 53.39485 37921 ft 437 kts 288°
2026-05-06 13:55 39.95241 53.31999 37925 ft 438 kts 288°
2026-05-06 13:56 39.97382 53.24464 37924 ft 437 kts 288°
2026-05-06 13:56 39.99483 53.17064 37923 ft 437 kts 288°
2026-05-06 13:57 40.01608 53.09622 37922 ft 438 kts 289°
2026-05-06 13:57 40.04102 53.02329 37923 ft 440 kts 294°
2026-05-06 13:58 40.07153 52.95272 37925 ft 443 kts 299°
2026-05-06 13:58 40.10640 52.88500 37924 ft 445 kts 301°
2026-05-06 13:59 40.14184 52.81838 37922 ft 446 kts 301°
2026-05-06 13:59 40.17749 52.75095 37923 ft 447 kts 301°
2026-05-06 14:00 40.21278 52.68371 37922 ft 447 kts 301°
2026-05-06 14:00 40.24799 52.61649 37923 ft 446 kts 301°
2026-05-06 14:01 40.28086 52.54686 37924 ft 445 kts 297°
2026-05-06 14:01 40.31147 52.47615 37923 ft 445 kts 296°
2026-05-06 14:02 40.34214 52.40471 37922 ft 445 kts 296°
2026-05-06 14:02 40.37271 52.33334 37925 ft 444 kts 296°
2026-05-06 14:03 40.40306 52.26212 37923 ft 444 kts 296°
2026-05-06 14:03 40.43363 52.19033 37922 ft 445 kts 296°
2026-05-06 14:04 40.46402 52.11887 37924 ft 444 kts 296°
2026-05-06 14:04 40.49439 52.04734 37922 ft 445 kts 296°
2026-05-06 14:05 40.52478 51.97556 37922 ft 445 kts 296°
2026-05-06 14:05 40.55477 51.90460 37922 ft 445 kts 296°
2026-05-06 14:06 40.58467 51.83371 37923 ft 445 kts 296°
2026-05-06 14:06 40.61452 51.76266 37923 ft 444 kts 296°
2026-05-06 14:07 40.64389 51.69259 37921 ft 444 kts 296°
2026-05-06 14:07 40.67395 51.62046 37921 ft 444 kts 295°
2026-05-06 14:08 40.69822 51.54544 37922 ft 441 kts 286°
2026-05-06 14:08 40.71330 51.46679 37930 ft 438 kts 278°
2026-05-06 14:09 40.71904 51.38694 37941 ft 437 kts 270°
2026-05-06 14:09 40.71702 51.30571 37961 ft 438 kts 266°
2026-05-06 14:10 40.71380 51.22561 37971 ft 437 kts 266°
2026-05-06 14:10 40.71046 51.14467 37974 ft 437 kts 266°
2026-05-06 14:11 40.70708 51.06397 37974 ft 436 kts 266°
2026-05-06 14:11 40.70369 50.98407 37975 ft 434 kts 266°
2026-05-06 14:12 40.70024 50.90450 37976 ft 431 kts 267°
2026-05-06 14:12 40.69685 50.82607 37974 ft 429 kts 267°
2026-05-06 14:13 40.69335 50.74722 37973 ft 430 kts 266°
2026-05-06 14:13 40.68972 50.66830 37978 ft 430 kts 267°
2026-05-06 14:14 40.68608 50.58966 37976 ft 430 kts 267°
2026-05-06 14:14 40.68399 50.51075 37974 ft 430 kts 270°
2026-05-06 14:15 40.68716 50.43171 37975 ft 430 kts 275°
2026-05-06 14:15 40.69588 50.35303 37975 ft 430 kts 280°
2026-05-06 14:16 40.70952 50.27584 37977 ft 431 kts 282°
2026-05-06 14:16 40.72420 50.19888 37977 ft 431 kts 282°
2026-05-06 14:17 40.73888 50.12213 37974 ft 432 kts 282°
2026-05-06 14:17 40.75357 50.04522 37977 ft 431 kts 282°
2026-05-06 14:18 40.76822 49.96807 37972 ft 431 kts 283°
2026-05-06 14:18 40.78294 49.89036 37975 ft 431 kts 282°
2026-05-06 14:19 40.79741 49.81361 37973 ft 431 kts 282°
2026-05-06 14:19 40.81199 49.73595 37976 ft 431 kts 282°
2026-05-06 14:20 40.82646 49.65847 37975 ft 432 kts 282°
2026-05-06 14:20 40.84085 49.58119 37975 ft 431 kts 283°
2026-05-06 14:21 40.85518 49.50397 37974 ft 431 kts 282°
2026-05-06 14:21 40.86941 49.42689 37974 ft 431 kts 282°
2026-05-06 14:22 40.88367 49.34936 37973 ft 431 kts 282°
2026-05-06 14:22 40.89713 49.27193 37977 ft 431 kts 281°
2026-05-06 14:23 40.91027 49.19412 37977 ft 431 kts 281°
2026-05-06 14:23 40.92331 49.11667 37977 ft 430 kts 281°
2026-05-06 14:24 40.93629 49.03946 37976 ft 428 kts 281°
2026-05-06 14:24 40.94912 48.96271 37974 ft 426 kts 282°
2026-05-06 14:25 40.96193 48.88614 37975 ft 424 kts 281°
2026-05-06 14:25 40.97461 48.80992 37975 ft 424 kts 281°
2026-05-06 14:26 40.98725 48.73363 37974 ft 425 kts 281°
2026-05-06 14:26 40.99979 48.65750 37975 ft 424 kts 281°
2026-05-06 14:27 41.01244 48.58042 37969 ft 424 kts 281°
2026-05-06 14:27 41.02491 48.50404 37965 ft 424 kts 281°
2026-05-06 14:28 41.03735 48.42751 37954 ft 423 kts 281°
2026-05-06 14:28 41.04978 48.35083 37951 ft 423 kts 281°
2026-05-06 14:29 41.06207 48.27438 37950 ft 424 kts 280°
2026-05-06 14:29 41.07442 48.19732 37949 ft 423 kts 280°
2026-05-06 14:30 41.08667 48.12052 37947 ft 423 kts 280°
2026-05-06 14:30 41.09883 48.04408 37950 ft 423 kts 280°
2026-05-06 14:31 41.11114 47.96751 37947 ft 423 kts 280°
2026-05-06 14:31 41.24770 47.08035 37925 ft 423 kts 279°
2026-05-06 14:32 41.37409 46.19588 37976 ft 411 kts 277°
2026-05-06 14:32 41.47734 45.41325 37996 ft 409 kts 278°
2026-05-06 14:33 41.53238 44.66436 38012 ft 411 kts 274°
2026-05-06 14:33 41.57118 44.26041 38038 ft 417 kts 271°
2026-05-06 14:34 41.57323 44.22189 38300 ft 417 kts 272°
2026-05-06 14:34 41.58694 44.02969 39933 ft 415 kts 274°
2026-05-06 14:34 41.65601 43.08861 40046 ft 416 kts 273°
2026-05-06 14:35 41.65760 42.14640 40110 ft 411 kts 254°
2026-05-06 14:35 41.64592 42.11046 40092 ft 415 kts 242°
2026-05-06 14:35 41.63121 42.07730 40092 ft 413 kts 245°
2026-05-06 14:36 41.61178 42.00596 40105 ft 409 kts 258°
2026-05-06 14:36 41.60136 41.93064 40121 ft 409 kts 260°
2026-05-06 14:37 41.59132 41.85551 40131 ft 409 kts 260°
2026-05-06 14:37 41.58137 41.78119 40134 ft 409 kts 260°
2026-05-06 14:38 41.57127 41.70635 40137 ft 409 kts 260°
2026-05-06 14:38 41.56110 41.63134 40138 ft 409 kts 260°
2026-05-06 14:39 41.55085 41.55633 40137 ft 409 kts 260°
2026-05-06 14:39 41.54059 41.48153 40139 ft 409 kts 260°
2026-05-06 14:40 41.52815 41.40675 40138 ft 410 kts 256°
2026-05-06 14:40 41.51050 41.33553 40142 ft 411 kts 250°
2026-05-06 14:41 41.48832 41.26475 40139 ft 411 kts 249°
2026-05-06 14:41 41.46577 41.19433 40137 ft 412 kts 249°
2026-05-06 14:42 41.44280 41.12427 40138 ft 411 kts 248°
2026-05-06 14:42 41.41974 41.05401 40138 ft 411 kts 248°
2026-05-06 14:43 41.39649 40.98333 40136 ft 412 kts 248°
2026-05-06 14:43 41.37322 40.91285 40137 ft 413 kts 248°